Powrót do katalogu

JCSAT 18

AktywnyŁącznośćGEO
NORAD 44868·PAYLOAD·🇯🇵 Japan

Wystrzelony Dec 17, 2019 z Cape Canaveral Space Force Station

Loading…

TLE

ŚwieżeSource: Space-Track

Epoka: Sep 14, 2026, 12:48 UTC

1 44868U 19091A   26257.53336206 -.00000209  00000-0  00000-0 0  9992
2 44868   0.0482 336.7807 0000172 308.5119  50.2391  1.00270960 24907

Śledź JCSAT 18 w czasie rzeczywistym z AllMySat

Download on the App Store